Dauntless Aviation
Airports Europe Poland
EPKT
KTW

Katowice International Airport

Katowice, POLAND

Airport Info
Suggest Updated Information for this Airport

Location

Latitude / Longitude: 50°28'27"N / 19°4'47"E
  50°28.458'N / 19°4.8'E
  50.4743 / 19.0800

Nearby radio navigation aids

PT KATOWICE NDB. 267.4° 2.7nm from PT to field.

Runway Information

Runway 09 /27

Dimensions: 9186 x 197 ft.
Surface: ASP
 
Runway 09
Runway 27
Latitude: 50.474306 50.474219
Longitude: 19.054642 19.094069
Elevation: 970 ft. 970 ft.
Runway true heading: 88.2 268.2
 

Instrument Procedures

  Aerodrome Chart
  Aircraft Parking/Docking Chart - Apron 1
  Aircraft Parking/Docking Chart - Apron 2/3

STARs (Standard Terminal Arrivals)

  RNAV1 (GNSS) STAR Rwy 09
  RNAV1 (GNSS) STAR Rwy 27

IAPs (Instrument Approach Procedures)

  ILS CAT II or LOC Rwy 27 (CAT A/B/C/D)
  VOR Rwy 09 (CAT A/B/C/D)
  VOR Rwy 27 (CAT A/B/C/D)
  RNP Rwy 09 (CAT A/B/C/D)
  RNP Rwy 27 (CAT A/B/C/D)
  Visual Operation Chart
  Aerodrome Information (Textual)
  Precision Approach Terrain Chart - Rwy 27
  Aerodrome Obstacle Chart - Rwy 09/27

Departure Procedures

  RNAV1 (GNSS) SID Rwy 09
  RNAV1 (GNSS) SID Rwy 27
Satellite photo at:
Airport distance calculator
From:
Weather Reports

METAR

EPKT

EPKT 241300Z VRB01KT CAVOK M01/M07 Q1033
EPKK
36.9nm E
EPKK 241300Z 23002KT CAVOK M01/M08 Q1034

TAF

EPKT
TAF EPKT 241130Z 2412/2512 18005KT CAVOK FM242100 23005KT 4000 -SN BR BKN012 TEMPO 2422/2512 2000 -SN -SNRA BR OVC005 PROB40 TEMPO 2500/2509 1000 -SG -FZDZ BR OVC002 BECMG 2509/2512 29010KT
EPKK
36.9nm E
TAF EPKK 241130Z 2412/2512 VRB02KT CAVOK FM242200 24005KT 4000 -SN BR BKN012 TEMPO 2422/2508 2000 -SN BR OVC005 PROB30 TEMPO 2501/2508 1200 -SG -FZDZ OVC002 TEMPO 2508/2512 3000 -SNRA -SN BR OVC007
Safelog

 

Dauntless Aviation

© 2007-2022 Dauntless Aviation, all rights reserved
Information provided via PilotNav comes from a variety of official and unofficial data sources. As errors are possible, do not use PilotNav for primary flight planning purposes. Verify any information that you receive via PilotNav with current and canonical charts and other official documents. The material in this database is subject to database copyrights held by Dauntless Aviation and may not be copied without the express permission of Dauntless Aviation - licenses for use of part of all of this data are available for purchase; enquire via the Dauntless Aviation helpdesk. A number of mechanisms and markers exist in the database to protect against and identify infringement / copyright. Automated queries against this website are strictly prohibited, and all activity is logged and analyzed.